Starlink 6176

operational
NORAD ID: 56388 Int'l Des: 2023-061 Owner: SPXS Country: US Constellation: starlink
LEOCIRCULAR

About Starlink 6176

Description loading...

Live Position

Loading 3D Globe...

Upcoming Passes

Altitude History

Altitude vs Time

uPlot chart will show altitude changes over time

Two-Line Element Set

1 56388U 23061Q 25304.65581573 -.00000280 00000-0 -56473-5 0 9998
2 56388 43.0024 178.6695 0000869 282.2386 77.8359 15.02533661137340
Epoch: Oct 31, 2025 • Age: 8 hours

Current Status

Altitude 562.4 km
Velocity 7.59 km/s
Sub-Earth Point 41.52°N, 153.75°W
Launch Date May 4, 2023
Age 2.4 years
Type internet

Technical Details

Classification Payload
Mass 305.00 kg
Dry Mass 290.00 kg
Total Mass 305.00 kg
Length 0.20 m
Diameter 2.80 m
Span 9.00 m
Shape Box + pan
Manufacturer SPXS
Bus Type Starlink
Phase Status In Orbit
Owner/State SPXS/US

Large Constellations

Loading constellations...